Find Starlink 5879

NORAD ID: 57153 Int'l Des: 2023-090 Owner: SPXS Country: US Constellation: starlink operational
LEOCIRCULAR

リアルタイム位置

3D地球を読み込み中...

Starlink 5879について

説明を読み込み中...

次回通過

Passes for default location (London). Set your location on the main map for personalized predictions.

高度履歴

Loading altitude history...

軌道要素

1 57153U 23090BE 26104.26333836 .00000930 00000-0 45382-4 0 9990
2 57153 43.0038 51.1481 0001300 272.9454 87.1249 15.25907789155610
Epoch: Apr 14, 2026 • Age: 17 hours

現在のステータス

高度 493.6 km
速度 7.62 km/s
衛星直下点 -25.13°S, 177.54°W
打ち上げ日 Jun 23, 2023
運用期間 2.8 years
タイプ internet

技術仕様

分類 Payload
質量 305.00 kg
乾燥質量 290.00 kg
総質量 305.00 kg
長さ 0.20 m
直径 2.80 m
スパン 9.00 m
形状 Box + pan
製造者 SPXS
バスタイプ Starlink
フェーズステータス In Orbit
所有者/国 SPXS/US

Most Searched